Toronto, Ontario

5:12 PM EST on February 07, 2016 (GMT -0500)
Toronto-City Centre

Weather History for CYTZ - January, 2013

Change the Weather History Date:

Sunday, January 6, 2013

  Actual Average (WUND) Record (WUND)
Temperature  
Mean Temperature 35 °F -  
Max Temperature 37 °F 29 °F - (-1)
Min Temperature 30 °F 18 °F - (-1)
Degree Days  
Heating Degree Days 30    
Moisture  
Dew Point 32 °F    
Average Humidity 88    
Maximum Humidity 93    
Minimum Humidity 69    
Precipitation  
Precipitation 0.01 in 0.07 in - ()
Sea Level Pressure  
Sea Level Pressure 29.94 in    
Wind  
Wind Speed 16 mph ()    
Max Wind Speed 23 mph    
Max Gust Speed 26 mph    
Visibility 6.4 miles    
Events Rain , Snow    
Averages and records for this station are not official NWS values.
T = Trace of Precipitation, MM = Missing Value Source: Averaged Metar Reports

Daily Weather History Graph

Daily Weather History Graph

Search for Another Location

Airport or City:

Trip Planner

Search our weather history database for the weather conditions in past years. The results will help you decide how hot, cold, wet, or windy it might be!

Date:

Astronomy

Jan. 06, 2013 Rise Set
Actual Time 7:50 AM EST 4:56 PM EST
Civil Twilight 7:18 AM EST 5:29 PM EST
Nautical Twilight 6:42 AM EST 6:04 PM EST
Astronomical Twilight 6:07 AM EST 6:39 PM EST
Moon 1:59 AM EST (1/6) 12:26 PM EST (1/6)
Length of Visible Light 10h 10m
Length of Day
9h 05m
Waning Crescent, 33% of the Moon is Illuminated
Jan 6
Waning Crescent
Jan 11
New
Jan 18
First Quarter
Jan 26
Full
Feb 3
Last Quarter

Hourly Weather History & Observations

Time (EST) Temp. Windchill Dew Point Humidity Pressure Visibility Wind Dir Wind Speed Gust Speed Precip Events Conditions
12:00 AM 35.6 °F 26.6 °F 28.4 °F 75% 30.03 in 9.0 mi SW 13.8 mph - N/A   Overcast
1:00 AM 35 °F - 29 °F 69% 30.01 in 10 mi SW 18.4 mph - -   Overcast
2:00 AM 35.6 °F 26.2 °F 30.2 °F 81% 29.99 in 9.0 mi WSW 15.0 mph - N/A   Overcast
3:00 AM 35.6 °F 24.5 °F 28.4 °F 75% 29.97 in 9.0 mi WSW 20.7 mph - N/A   Overcast
4:00 AM 35.6 °F 25.5 °F 30.2 °F 81% 29.96 in 7.0 mi WSW 17.3 mph - N/A   Overcast
4:06 AM 35.6 °F 24.8 °F 30.2 °F 81% 29.96 in 7.0 mi SW 19.6 mph - N/A   Overcast
4:17 AM 35.6 °F 25.2 °F 30.2 °F 81% 29.95 in 7.0 mi SW 18.4 mph - N/A   Overcast
4:18 AM 33.8 °F 22.5 °F 30.2 °F 87% 29.95 in 7.0 mi SW 19.6 mph - N/A   Overcast
4:26 AM 33.8 °F 22.5 °F 30.2 °F 87% 29.95 in 6.0 mi WSW 19.6 mph - N/A Rain Light Rain
4:27 AM 33.8 °F 22.5 °F 30.2 °F 87% 29.95 in 6.0 mi WSW 19.6 mph - N/A   Overcast
4:29 AM 33.8 °F 22.5 °F 30.2 °F 87% 29.95 in 6.0 mi WSW 19.6 mph - N/A Rain Light Rain
4:32 AM 33.8 °F 23.5 °F 32.0 °F 93% 29.95 in 6.0 mi WSW 16.1 mph 23.0 mph N/A Rain Light Rain
4:34 AM 33.8 °F 23.2 °F 32.0 °F 93% 29.95 in 6.0 mi WSW 17.3 mph - N/A   Mostly Cloudy
4:43 AM 33.8 °F 23.2 °F 32.0 °F 93% 29.94 in 6.0 mi WSW 17.3 mph - N/A   Overcast
4:54 AM 33.8 °F 22.8 °F 32.0 °F 93% 29.94 in - WSW 18.4 mph - N/A   Overcast
5:00 AM 33.8 °F 22.8 °F 32.0 °F 93% 29.94 in 7.0 mi WSW 18.4 mph - N/A   Overcast
5:13 AM 35.6 °F 25.2 °F 32.0 °F 87% 29.93 in - WSW 18.4 mph - N/A   Overcast
5:25 AM 35.6 °F 25.2 °F 32.0 °F 87% 29.93 in 7.0 mi SW 18.4 mph - N/A   Overcast
6:00 AM 35.6 °F 26.2 °F 32.0 °F 87% 29.92 in 6.0 mi SW 15.0 mph - N/A   Overcast
6:18 AM 35.6 °F 25.9 °F 32.0 °F 87% 29.92 in 5.0 mi SW 16.1 mph - N/A   Overcast
6:33 AM 35.6 °F 25.5 °F 32.0 °F 87% 29.92 in 6.0 mi SW 17.3 mph - N/A   Overcast
7:00 AM 36 °F - 33 °F 86% 29.92 in - SW 17.3 mph - -   Overcast
7:00 AM 35.6 °F 25.9 °F 33.8 °F 93% 29.92 in - WSW 16.1 mph 21.9 mph N/A   Overcast
7:37 AM 35.6 °F 24.2 °F 33.8 °F 93% 29.91 in 8.0 mi SW 21.9 mph - N/A   Overcast
7:57 AM 35.6 °F 24.2 °F 33.8 °F 93% 29.91 in 7.0 mi SW 21.9 mph - N/A Rain Light Rain
8:00 AM 35.6 °F 24.0 °F 33.8 °F 93% 29.91 in 7.0 mi SW 23.0 mph - N/A   Overcast
8:02 AM 35.6 °F 24.2 °F 33.8 °F 93% 29.91 in 7.0 mi SW 21.9 mph - N/A Rain Light Rain
8:04 AM 35.6 °F 24.5 °F 33.8 °F 93% 29.91 in 7.0 mi SW 20.7 mph 26.5 mph N/A   Overcast
9:00 AM 35.6 °F 24.5 °F 33.8 °F 93% 29.91 in 7.0 mi SW 20.7 mph - N/A   Overcast
9:20 AM 35.6 °F 24.8 °F 33.8 °F 93% 29.91 in - SW 19.6 mph - N/A   Overcast
9:32 AM 35.6 °F 25.2 °F 33.8 °F 93% 29.91 in 7.0 mi WSW 18.4 mph 24.2 mph N/A Rain Light Rain
9:34 AM 35.6 °F 24.5 °F 33.8 °F 93% 29.91 in 7.0 mi WSW 20.7 mph - N/A   Overcast
9:38 AM 35.6 °F 24.5 °F 32.0 °F 87% 29.91 in 6.0 mi WSW 20.7 mph - N/A Rain Light Rain
9:39 AM 35.6 °F 24.5 °F 32.0 °F 87% 29.91 in 6.0 mi WSW 20.7 mph - N/A   Overcast
9:42 AM 35.6 °F 25.5 °F 33.8 °F 93% 29.91 in 6.0 mi WSW 17.3 mph 24.2 mph N/A Rain Light Rain
9:43 AM 35.6 °F 24.8 °F 32.0 °F 87% 29.91 in 6.0 mi WSW 19.6 mph - N/A   Overcast
9:48 AM 35.6 °F 24.8 °F 32.0 °F 87% 29.91 in 7.0 mi WSW 19.6 mph - N/A Rain Light Rain
9:56 AM 35.6 °F 25.2 °F 32.0 °F 87% 29.92 in 7.0 mi WSW 18.4 mph - N/A   Overcast
9:57 AM 35.6 °F 25.2 °F 32.0 °F 87% 29.92 in 7.0 mi WSW 18.4 mph - N/A Rain Light Rain
9:58 AM 35.6 °F 25.5 °F 32.0 °F 87% 29.92 in 7.0 mi WSW 17.3 mph - N/A   Overcast
10:09 AM 35.6 °F 25.2 °F 32.0 °F 87% 29.92 in 6.0 mi WSW 18.4 mph - N/A   Overcast
10:10 AM 35.6 °F 24.8 °F 32.0 °F 87% 29.92 in 5.0 mi WSW 19.6 mph - N/A Rain Light Rain
10:12 AM 35.6 °F 24.8 °F 33.8 °F 93% 29.92 in 5.0 mi WSW 19.6 mph - N/A   Overcast
10:14 AM 35.6 °F 24.8 °F 32.0 °F 87% 29.92 in 5.0 mi WSW 19.6 mph - N/A Rain Light Rain
10:17 AM 35.6 °F 24.8 °F 32.0 °F 87% 29.92 in 4.0 mi WSW 19.6 mph - N/A   Overcast
10:22 AM 35.6 °F 25.2 °F 33.8 °F 93% 29.92 in 3.0 mi WSW 18.4 mph - N/A Snow Light Snow
10:24 AM 35.6 °F 25.5 °F 33.8 °F 93% 29.92 in 3.0 mi WSW 17.3 mph - N/A Snow Light Snow
10:26 AM 35.6 °F 25.9 °F 33.8 °F 93% 29.92 in 3.0 mi WSW 16.1 mph 23.0 mph N/A Snow Light Snow
10:30 AM 35.6 °F 25.5 °F 33.8 °F 93% 29.92 in 3.0 mi WSW 17.3 mph - N/A   Overcast
10:32 AM 35.6 °F 25.9 °F 33.8 °F 93% 29.92 in 3.0 mi WSW 16.1 mph 23.0 mph N/A Rain Light Rain
10:33 AM 35.6 °F 25.5 °F 33.8 °F 93% 29.92 in 3.0 mi WSW 17.3 mph - N/A   Overcast
10:36 AM 35.6 °F 25.5 °F 33.8 °F 93% 29.92 in 4.0 mi WSW 17.3 mph - N/A Rain Light Rain
10:37 AM 35.6 °F 25.5 °F 33.8 °F 93% 29.92 in 4.0 mi WSW 17.3 mph - N/A   Overcast
10:39 AM 35.6 °F 25.2 °F 33.8 °F 93% 29.92 in 4.0 mi WSW 18.4 mph - N/A   Overcast
10:44 AM 35.6 °F 24.8 °F 33.8 °F 93% 29.92 in 5.0 mi WSW 19.6 mph - N/A Rain Light Rain
10:46 AM 35.6 °F 25.2 °F 33.8 °F 93% 29.92 in 5.0 mi WSW 18.4 mph - N/A   Overcast
10:47 AM 35.6 °F 25.9 °F 33.8 °F 93% 29.92 in 5.0 mi WSW 16.1 mph 23.0 mph N/A Rain Light Rain
10:51 AM 35.6 °F 24.5 °F 33.8 °F 93% 29.91 in 5.0 mi SW 20.7 mph - N/A Rain Light Rain
10:54 AM 35.6 °F 25.5 °F 33.8 °F 93% 29.91 in 5.0 mi SW 17.3 mph 24.2 mph N/A   Overcast
10:56 AM 35.6 °F 24.8 °F 33.8 °F 93% 29.91 in 5.0 mi SW 19.6 mph - N/A Rain Light Rain
11:00 AM 35.6 °F 24.8 °F 33.8 °F 93% 29.91 in 5.0 mi SW 19.6 mph - N/A   Overcast
11:02 AM 35.6 °F 25.2 °F 33.8 °F 93% 29.91 in 5.0 mi SW 18.4 mph - N/A   Overcast
11:03 AM 35.6 °F 25.2 °F 33.8 °F 93% 29.91 in 5.0 mi SW 18.4 mph - N/A Rain Light Rain
11:04 AM 35.6 °F 25.2 °F 33.8 °F 93% 29.91 in 5.0 mi SW 18.4 mph - N/A   Overcast
11:13 AM 35.6 °F 25.9 °F 33.8 °F 93% 29.91 in - WSW 16.1 mph - N/A   Overcast
11:17 AM 35.6 °F 25.2 °F 33.8 °F 93% 29.90 in 5.0 mi SW 18.4 mph - N/A   Overcast
11:30 AM 35.6 °F 24.5 °F 33.8 °F 93% 29.90 in 6.0 mi WSW 20.7 mph - N/A   Unknown
11:52 AM 35.6 °F 25.9 °F 33.8 °F 93% 29.89 in 6.0 mi WSW 16.1 mph - N/A   Overcast
12:00 PM 35.6 °F 25.9 °F 33.8 °F 93% 29.89 in - WSW 16.1 mph - N/A   Overcast
1:00 PM 37 °F - 33 °F 81% 29.88 in 10 mi WSW 16.1 mph - -   Overcast
1:00 PM 37.4 °F 28.2 °F 33.8 °F 87% 29.88 in 9.0 mi WSW 16.1 mph - N/A   Overcast
2:00 PM 37.4 °F 27.8 °F 32.0 °F 81% 29.88 in 9.0 mi WSW 17.3 mph - N/A   Overcast
2:32 PM 37.4 °F 28.5 °F 33.8 °F 87% 29.88 in 9.0 mi WSW 15.0 mph - N/A   Mostly Cloudy
3:00 PM 37.4 °F 29.3 °F 33.8 °F 87% 29.89 in 8.0 mi WSW 12.7 mph - N/A   Overcast
3:13 PM 37.4 °F 29.3 °F 32.0 °F 81% 29.89 in 8.0 mi WSW 12.7 mph - N/A   Overcast
4:00 PM 37.4 °F 29.8 °F 32.0 °F 81% 29.91 in 8.0 mi WSW 11.5 mph - N/A   Overcast
4:38 PM 37.4 °F 28.9 °F 33.8 °F 87% 29.92 in 7.0 mi SW 13.8 mph - N/A Rain Light Rain
4:39 PM 37.4 °F 28.9 °F 33.8 °F 87% 29.92 in 7.0 mi SW 13.8 mph - N/A   Overcast
4:40 PM 37.4 °F 28.5 °F 33.8 °F 87% 29.92 in 7.0 mi WSW 15.0 mph - N/A Rain Light Rain
4:43 PM 37.4 °F 29.3 °F 33.8 °F 87% 29.93 in 7.0 mi WSW 12.7 mph - N/A   Overcast
4:45 PM 37.4 °F 28.9 °F 33.8 °F 87% 29.93 in 7.0 mi WSW 13.8 mph - N/A Rain Light Rain
4:46 PM 37.4 °F 28.9 °F 33.8 °F 87% 29.93 in 7.0 mi WSW 13.8 mph - N/A   Overcast
4:49 PM 37.4 °F 29.3 °F 33.8 °F 87% 29.93 in 7.0 mi WSW 12.7 mph - N/A   Overcast
4:59 PM 37.4 °F 28.9 °F 32.0 °F 81% 29.93 in 7.0 mi WSW 13.8 mph - N/A   Overcast
5:00 PM 37.4 °F 29.3 °F 32.0 °F 81% 29.93 in 7.0 mi WSW 12.7 mph - N/A   Overcast
6:00 PM 37.4 °F 30.3 °F 32.0 °F 81% 29.96 in 7.0 mi West 10.4 mph - N/A   Overcast
6:39 PM 37.4 °F 30.3 °F 32.0 °F 81% 29.97 in 7.0 mi WSW 10.4 mph - N/A   Mostly Cloudy
7:00 PM 36 °F - 33 °F 83% 29.99 in - West 11.5 mph - -   Overcast
7:00 PM 37.4 °F 30.3 °F 32.0 °F 81% 29.99 in - West 10.4 mph - N/A   Overcast
7:11 PM 37.4 °F 29.8 °F 32.0 °F 81% 29.99 in 6.0 mi WSW 11.5 mph - N/A   Overcast
7:12 PM 37.4 °F 30.3 °F 32.0 °F 81% 29.99 in 6.0 mi WSW 10.4 mph - N/A   Overcast
7:40 PM 37.4 °F 30.8 °F 32.0 °F 81% 30.00 in 6.0 mi West 9.2 mph - N/A   Haze
8:16 PM 37.4 °F 32.1 °F 32.0 °F 81% 30.02 in 6.0 mi NW 6.9 mph - N/A   Overcast
8:53 PM 35.6 °F 29.2 °F 32.0 °F 87% 30.04 in 9.0 mi NW 8.1 mph - N/A   Overcast
9:00 PM 35.6 °F 27.5 °F 32.0 °F 87% 30.04 in 9.0 mi NW 11.5 mph 18.4 mph N/A   Overcast
9:49 PM 33.8 °F 24.8 °F 28.4 °F 81% 30.07 in 9.0 mi NNW 12.7 mph 20.7 mph N/A   Mostly Cloudy
9:53 PM 33.8 °F 23.2 °F 28.4 °F 81% 30.07 in 9.0 mi NW 17.3 mph - N/A   Mostly Cloudy
10:00 PM 33.8 °F 24.3 °F 28.4 °F 81% 30.08 in 9.0 mi NW 13.8 mph 24.2 mph N/A   Mostly Cloudy
11:00 PM 30.2 °F 19.8 °F 24.8 °F 80% 30.12 in 9.0 mi NW 13.8 mph 23.0 mph N/A   Mostly Cloudy